Location: Sternwarte auf dem Internationalen Platz Vogelsang IP
(50.5721°N, 6.4398°E)
Time: 10:43:23
(UTC+01:00)

ACS3 Solar Sail - Pass Details

Date: 15 November 2025
Orbit: 888 x 1003 km, 97.3° (Epoch: 07 December)

Event Time Altitude Azimuth Distance (km) Brightness Sun altitude
Rises 04:57:57 0° 8° (N) 3,549 4.9 -27.0°
Reaches altitude 10° 05:00:28 10° 2° (N) 2,618 4.1 -26.6°
Enters shadow 05:03:39 30° 339° (NNW) 1,610 2.7 -26.1°
